RH
16 18 18 20 59 100 100 100 100 100 100 100 100 100 100 93 90 100 100 98 91 87 78 79 76 66 62 56 55 69 70 57 49 51 64 48 54 58 56 38 38 50 35 39 52 61 66 67 66
17 18 21 23 37 100 100 100 100 100 100 100 100 100 100 100 100 100 100 100 100 95 89 82 83 74 74 71 65 64 62 67 64 60 62 44 50 60 76 68 55 36 47 35 46 58 64 69 96
18 19 20 21 22 52 87 91 100 100 100 99 99 100 100 100 94 100 100 98 89 87 86 92 84 85 78 72 72 65 68 72 66 58 66 57 47 63 71 84 67 56 40 59 40 43 74 91 94
50 43 43 54 62 54 33 35 68 93 92 98 88 71 70 72 80 76 83 91 100 100 98 82 83 81 74 74 64 62 69 63 69 65 51 56 58 59 50 58 67 78 57 46 62 54 68 100 96
79 80 90 89 98 100 97 94 91 90 72 81 80 82 88 99 99 84 68 66 73 86 94 92 86 70 71 71 78 78 71 76 74 72 71 62 59 64 65 58 75 76 71 66 50 63 76 92 100
27 28 31 37 35 37 56 69 100 88 100 86 80 65 70 80 85 92 86 83 82 77 74 70 73 83 90 92 84 89 100 91 85 83 72 67 68 59 68 88 61 64 73 61 85 66 76 98 98
26 28 31 29 29 28 28 27 26 27 25 27 33 48 58 63 78 72 72 64 74 76 73 74 71 60 82 94 74 84 86 100 100 90 96 100 97 89 81 68 77 65 71 68 48 79 62 63 92
26 32 36 32 30 27 29 31 26 32 32 32 29 26 26 29 31 32 38 51 58 50 45 51 58 61 77 94 85 76 83 57 58 93 100 100 90 100 96 95 95 99 90 69 58 79 100 78 59
36 29 29 33 38 28 28 30 46 34 28 31 30 33 28 28 25 25 29 34 32 29 49 59 67 54 55 58 93 100 80 99 91 70 82 85 73 91 100 95 84 99 100 100 83 74 72 100 84
42 39 50 52 50 63 60 66 57 49 43 37 51 49 37 30 28 29 24 26 29 32 37 32 52 62 72 60 55 79 100 98 99 98 79 74 78 68 62 87 96 93 100 100 100 96 71 96 100
41 50 55 61 76 80 79 64 80 65 74 70 71 75 52 43 31 24 26 29 33 30 33 33 35 33 46 73 78 75 62 86 97 87 100 99 90 98 77 71 78 100 100 93 100 100 100 81 75
44 44 56 54 67 76 78 75 86 79 97 96 77 64 79 89 64 35 30 34 31 37 38 32 32 36 38 38 64 78 88 70 60 76 83 96 100 100 100 90 87 99 85 91 100 100 100 100 94
32 32 34 46 54 73 82 50 62 87 76 58 84 70 56 54 82 97 79 57 62 52 41 43 38 41 38 42 39 47 79 80 71 69 78 64 81 100 100 98 70 60 90 71 89 94 96 99 100
45 48 35 38 47 48 56 45 61 58 56 63 85 82 71 71 78 78 78 91 73 74 73 58 55 46 44 40 41 45 40 51 82 87 83 72 64 99 94 100 100 100 80 75 99 98 62 94 100
53 55 45 36 47 40 35 35 47 44 48 42 73 64 100 99 79 85 95 90 81 64 62 83 66 74 66 56 54 49 46 44 39 96 95 91 78 77 100 94 91 100 100 94 78 83 100 100 100
53 64 73 69 49 39 47 43 38 40 41 48 62 69 93 100 100 93 68 86 76 83 72 77 100 93 74 81 62 66 64 50 48 43 48 96 100 95 100 100 100 100 96 100 98 85 100 100 98
48 92 88 73 64 57 61 50 36 35 63 59 66 78 98 100 86 93 93 69 74 70 85 92 99 100 98 75 72 65 70 68 59 54 52 40 58 97 100 100 100 100 100 97 100 100 100 100 100
80 92 54 53 56 46 55 71 62 43 72 80 83 98 93 76 76 59 82 92 80 43 63 91 95 100 100 98 86 76 78 85 74 68 53 51 45 36 52 83 100 100 100 100 84 68 92 100 100
88 65 67 72 46 56 52 78 58 50 54 60 84 100 71 75 70 46 45 71 70 43 26 70 88 100 100 100 93 86 67 70 82 84 83 66 55 50 48 34 46 86 100 100 100 100 72 100 100
98 75 68 46 53 62 73 79 62 79 85 59 48 60 57 50 44 49 37 60 69 39 14 22 64 80 99 100 95 92 76 71 71 70 81 89 81 59 50 48 39 32 49 98 100 100 100 100 100
100 80 57 54 60 71 81 65 50 76 99 71 53 47 38 38 34 41 40 47 59 32 12 16 33 51 63 89 96 84 84 75 78 79 68 71 78 72 58 51 46 47 33 38 94 100 100 100 93
51 53 57 67 77 68 57 59 56 66 67 55 46 38 33 42 35 30 34 43 62 28 12 13 22 38 54 74 91 94 86 85 82 80 74 67 63 65 59 48 43 43 44 42 29 70 100 100 100
55 66 78 77 70 88 95 96 58 53 50 45 38 36 38 36 37 34 40 44 58 29 12 12 15 23 35 60 80 90 93 86 85 86 93 92 84 70 62 58 54 40 35 41 42 32 35 71 100
72 84 85 74 79 76 64 68 55 55 44 45 40 36 47 50 54 38 40 45 54 23 13 13 14 15 16 26 50 73 71 56 55 64 69 66 68 62 63 64 56 46 40 40 39 43 37 30 41
89 86 72 64 68 78 83 75 66 47 52 45 42 37 32 38 43 49 48 44 56 19 13 13 13 14 15 14 16 17 19 20 29 33 44 58 68 67 57 58 53 33 25 21 24 28 34 40 29
100 89 84 95 88 84 98 94 88 80 65 56 49 45 39 43 48 36 39 42 53 34 13 13 13 13 13 13 14 14 14 14 15 16 16 16 17 19 21 21 19 20 19 16 14 17 25 28 38
100 100 96 85 68 63 74 73 78 82 69 58 57 54 38 47 43 41 33 34 39 41 13 13 13 12 12 13 14 14 14 14 15 16 16 16 16 16 16 14 13 12 11 11 10 10 14 21 26
100 100 99 86 73 75 67 70 83 72 73 64 62 62 73 51 40 29 22 27 31 25 15 14 14 13 12 12 13 13 14 14 16 16 16 15 15 15 15 15 13 12 12 12 10 10 10 13 18
100 100 90 70 72 77 85 94 71 77 63 54 61 54 52 61 52 33 18 18 26 17 14 13 14 14 14 14 13 13 13 13 14 16 16 14 13 13 13 13 14 13 11 10 10 10 10 11 13
100 91 67 83 99 100 94 62 61 66 66 60 58 54 52 55 58 37 18 14 19 15 13 13 14 14 15 15 15 14 13 12 13 14 15 15 14 12 12 12 13 12 12 10 10 11 11 12 14
Wind_Speed
22 23 25 32 39 43 43 45 44 47 48 49 49 50 52 53 56 60 59 60 60 60 59 58 57 55 54 55 56 54 52 51 51 50 49 47 47 46 45 43 40 39 42 40 42 42 39 38 39
15 19 18 19 29 39 43 44 43 45 47 50 52 53 54 56 59 58 63 65 66 64 64 62 61 59 58 57 58 57 58 57 54 53 54 51 49 47 47 47 44 42 42 43 43 43 42 43 38
8 5 10 13 18 31 40 44 47 44 49 54 56 59 60 63 65 64 64 65 68 70 67 65 63 61 61 61 61 61 61 60 59 57 55 55 47 47 51 50 49 47 43 44 46 44 42 43 42
20 19 15 15 10 11 21 39 44 50 52 54 58 59 60 66 66 66 69 71 70 69 70 69 69 66 65 66 65 65 61 64 64 62 61 59 57 57 55 55 52 49 49 47 46 46 46 43 41
18 15 14 13 13 12 15 17 23 38 49 56 60 62 63 62 65 69 73 73 72 73 73 71 71 70 72 70 69 70 69 68 64 67 64 63 61 60 59 58 56 53 48 42 47 47 46 46 45
29 26 25 22 14 8 8 17 22 30 37 41 48 55 65 74 75 71 72 74 75 77 77 75 73 68 58 62 64 69 70 70 66 67 66 65 62 59 61 59 58 58 55 50 42 48 50 53 53
36 33 27 18 16 16 13 15 16 19 21 23 28 41 50 57 61 67 73 79 85 85 84 83 81 79 77 64 64 58 61 62 66 70 67 61 62 61 60 61 58 58 60 55 49 47 52 53 56
39 33 32 29 27 21 15 21 19 18 16 17 23 31 34 35 39 45 55 65 67 74 77 75 75 83 83 78 75 69 68 72 65 66 67 68 69 65 63 61 55 52 54 56 52 45 47 52 57
44 39 34 33 36 35 34 29 36 33 34 34 31 31 30 35 40 42 40 44 51 57 64 77 76 74 75 85 82 71 73 66 65 61 61 63 68 67 63 62 59 58 55 52 56 50 50 42 54
46 44 44 42 43 47 47 42 45 40 40 40 38 42 42 39 37 41 42 42 44 46 51 55 66 77 75 74 75 84 81 72 71 70 70 65 60 62 69 69 66 62 58 58 58 54 52 57 56
41 43 43 45 45 41 45 49 46 51 57 51 45 45 47 48 46 42 43 48 47 47 47 49 56 61 72 81 82 83 80 93 85 77 70 71 64 65 66 69 72 63 62 58 59 63 59 58 60
36 42 42 42 41 43 42 46 45 44 46 55 50 47 47 46 50 50 46 45 52 53 53 53 52 55 59 65 79 84 83 86 88 98 87 83 71 63 67 71 71 63 68 63 60 64 63 62 62
36 41 40 37 38 39 38 38 47 48 54 52 52 49 47 48 46 49 51 50 51 54 56 57 56 55 54 58 63 74 85 83 82 85 87 90 86 80 72 65 70 70 60 59 57 61 64 63 69
40 41 38 34 35 38 39 45 44 51 52 50 50 53 52 48 50 50 49 52 56 53 55 58 57 58 58 57 58 63 69 82 90 89 86 83 91 85 84 85 79 71 71 67 40 64 56 57 66
42 46 45 39 37 40 50 52 52 53 54 60 54 59 61 61 58 55 56 58 55 60 59 55 58 55 54 56 59 55 61 66 77 89 92 86 87 91 90 89 87 85 76 74 78 67 80 81 73
45 49 49 48 45 47 55 59 60 63 67 65 64 66 69 69 65 61 61 60 56 58 59 54 52 57 60 57 57 59 59 59 66 73 86 98 92 91 91 92 92 91 87 77 80 77 76 82 83
46 51 44 46 47 58 62 65 61 66 74 72 73 72 71 70 69 67 68 61 56 55 54 56 54 58 58 59 59 60 61 61 60 63 70 81 94 102 96 93 94 93 92 89 90 85 79 79 81
46 47 47 48 57 61 60 64 68 68 69 74 79 77 73 69 71 73 72 66 61 54 50 55 57 59 61 62 63 62 60 62 64 63 66 70 76 87 101 109 104 101 97 97 99 98 94 92 92
46 48 49 50 56 58 60 68 75 71 74 79 78 81 78 80 76 76 71 66 61 56 51 56 62 65 65 63 65 67 66 67 67 65 64 65 69 74 80 91 104 114 107 101 101 107 100 98 97
48 47 50 54 56 57 64 68 71 78 85 84 80 80 81 79 83 80 74 65 60 55 51 52 63 67 68 69 72 70 70 69 69 70 68 66 67 70 74 80 87 96 108 110 105 103 103 103 103
48 50 52 55 60 59 62 72 71 84 85 81 81 87 94 87 90 82 75 65 57 52 49 48 57 66 68 74 74 71 70 71 70 71 73 72 71 71 72 74 78 83 94 103 114 109 102 101 106
47 50 54 58 61 66 70 69 74 84 81 79 83 89 98 90 92 87 73 65 57 50 46 45 50 58 62 69 71 68 67 67 70 72 75 77 76 76 76 74 77 79 83 92 102 116 119 115 110
47 51 53 57 63 66 70 75 79 82 80 81 87 95 97 93 89 86 75 68 56 50 46 43 44 48 54 58 62 65 66 66 67 70 72 73 75 80 77 77 77 77 80 86 91 102 114 123 121
52 54 56 61 63 70 77 82 83 80 88 90 94 95 94 87 81 80 77 68 55 49 46 43 41 45 48 53 57 60 64 64 66 69 73 74 76 77 76 79 79 76 76 81 86 91 101 111 119
53 56 59 57 67 75 79 80 83 91 93 94 96 99 98 96 83 72 69 62 55 49 46 45 45 45 47 51 53 55 59 61 63 65 70 72 75 78 78 78 78 75 73 77 81 86 91 99 109
58 59 64 65 70 73 76 82 89 93 98 101 106 108 104 90 78 77 69 60 56 51 47 45 46 48 49 50 52 54 55 57 60 62 65 68 71 74 76 78 76 76 76 76 77 79 86 90 98
60 62 67 72 75 79 83 85 90 97 101 102 105 100 103 89 80 70 63 57 54 52 49 47 46 48 49 49 50 53 55 56 58 61 63 66 69 71 74 75 74 76 76 76 76 76 78 85 90
63 68 72 77 83 85 86 86 95 102 107 108 104 96 89 88 82 74 68 60 53 52 49 47 48 49 50 50 52 54 55 56 59 61 64 65 67 69 71 73 73 74 72 74 76 77 76 79 86
66 70 77 82 88 87 88 95 103 106 108 107 107 103 94 89 76 72 68 63 56 53 51 50 50 51 52 52 54 55 56 56 59 60 63 65 66 67 66 66 66 68 70 69 68 69 70 73 78
70 76 79 84 86 93 100 101 107 109 110 113 116 108 98 92 83 71 67 63 57 54 51 51 52 54 54 55 56 57 57 58 59 60 62 63 63 64 63 61 62 63 63 65 64 63 66 67 72
Wind_Direction
196 210 219 226 224 228 235 237 239 242 244 247 249 250 246 245 247 245 249 249 249 248 250 252 253 254 254 253 256 258 262 260 261 261 263 265 267 270 268 267 264 262 254 253 250 249 251 249 248
195 205 214 225 226 229 234 236 240 244 248 250 249 246 246 247 244 246 249 248 248 249 251 252 253 253 253 253 253 256 258 259 260 258 260 262 267 267 269 267 267 263 260 254 251 250 251 250 249
154 194 226 245 241 233 237 239 240 243 246 247 245 246 248 247 247 247 248 251 253 253 253 252 253 253 253 253 252 253 255 259 258 257 259 261 260 263 268 267 267 266 260 256 252 251 250 247 245
57 57 57 39 6 318 269 249 247 246 249 250 252 253 254 254 255 254 254 254 254 255 255 255 254 254 255 256 255 254 253 255 258 257 256 258 262 261 264 267 269 265 260 258 257 250 248 247 242
57 39 22 355 333 303 283 275 270 265 262 257 256 256 257 257 258 258 257 254 255 256 255 256 255 258 258 257 256 257 257 259 255 256 258 258 261 262 261 260 262 264 262 262 257 252 247 244 244
59 54 45 49 47 10 318 292 275 283 272 270 265 262 262 257 256 257 257 257 257 257 258 255 254 252 254 254 255 257 259 258 255 257 257 256 256 253 259 260 259 259 260 257 258 252 249 247 246
70 70 71 66 52 39 15 354 339 321 311 298 287 276 271 268 261 258 260 259 257 255 253 252 253 255 251 251 249 248 254 252 254 254 254 255 254 254 254 257 259 259 256 258 256 254 252 248 247
58 56 51 52 47 50 25 22 14 12 352 335 314 301 291 285 279 276 270 262 261 258 258 256 254 251 249 249 251 247 246 250 249 249 249 251 252 255 255 254 254 257 256 253 252 253 251 251 250
54 53 46 39 31 27 26 13 6 358 354 353 347 333 309 292 285 282 281 276 271 266 265 260 257 253 251 249 244 245 243 242 245 244 244 245 246 248 251 251 251 252 253 253 251 252 250 243 248
52 52 50 45 44 39 34 25 16 4 355 346 348 341 335 326 304 286 283 279 276 273 270 265 260 255 252 248 246 244 240 240 241 246 246 247 247 247 247 248 248 247 250 253 248 251 251 244 247
51 49 49 45 41 35 25 23 18 17 12 4 348 343 337 329 327 314 296 283 275 272 270 269 265 260 256 251 251 249 246 244 243 240 244 248 251 246 248 249 245 243 241 245 248 250 251 248 246
47 45 38 32 29 26 21 18 17 13 4 7 0 346 335 329 321 320 306 297 284 277 271 268 266 262 259 256 252 249 250 247 245 243 244 244 244 241 244 242 242 244 246 245 245 250 251 250 248
32 27 22 23 22 19 13 9 14 8 5 6 0 350 336 328 321 316 311 299 290 284 278 272 269 265 261 257 255 251 249 247 245 244 244 242 241 242 243 246 245 246 243 248 247 248 252 256 252
21 12 11 13 15 11 6 3 3 1 5 360 356 353 346 327 320 312 308 305 292 285 278 276 276 272 268 262 257 254 252 248 246 246 246 242 240 241 241 243 246 247 244 248 250 252 258 256 255
11 6 3 360 358 356 356 355 354 354 355 353 350 352 341 340 327 318 312 304 297 287 279 272 273 273 272 269 262 259 254 252 249 244 245 242 240 240 243 245 243 242 245 246 243 245 254 254 246
360 0 356 356 353 351 351 349 349 351 349 350 349 346 341 338 329 324 310 303 296 291 282 272 268 269 268 269 266 262 258 255 251 250 245 241 241 240 239 241 243 242 243 237 241 242 240 243 243
354 355 354 352 347 350 346 346 342 350 353 351 347 346 341 335 329 323 317 307 295 288 277 272 263 266 268 269 268 263 260 258 256 250 249 247 242 239 239 239 239 239 240 239 240 241 238 238 242
346 348 347 348 348 350 348 346 345 341 349 351 347 343 336 333 328 321 317 311 301 288 274 267 258 260 263 265 266 263 260 258 256 256 251 248 247 244 242 241 239 236 238 243 244 242 242 241 244
342 345 346 345 347 346 342 342 344 341 344 343 346 343 337 332 325 322 318 310 301 290 273 262 256 253 257 260 264 262 258 254 254 253 255 252 248 247 245 243 241 239 239 236 239 244 242 237 239
334 342 341 344 342 342 339 338 343 344 342 339 338 338 332 332 325 319 315 309 303 295 280 271 261 255 254 257 261 259 257 257 255 253 251 253 253 250 247 245 243 240 239 236 234 235 239 238 239
330 333 337 339 337 337 336 336 335 336 337 334 333 328 327 325 323 318 314 310 304 296 285 277 270 262 259 259 260 260 256 257 256 255 255 252 253 255 252 248 246 243 240 238 233 232 235 236 236
334 334 334 332 332 333 334 336 330 332 331 328 327 324 325 323 322 320 319 312 308 299 288 281 274 269 266 263 263 263 259 258 256 256 255 255 255 254 256 254 250 246 242 240 237 234 232 234 235
332 333 332 331 335 333 331 330 329 330 331 326 325 327 328 327 323 321 321 314 309 302 291 284 280 274 271 267 264 263 261 258 258 258 257 259 259 258 259 261 258 253 249 244 240 238 236 233 234
330 328 327 327 329 328 328 329 331 330 328 326 328 329 330 328 322 319 318 313 310 303 293 285 277 274 270 269 266 264 263 263 262 261 259 259 259 261 261 261 260 256 253 250 245 241 240 238 234
325 327 325 324 323 326 328 330 330 330 329 330 330 331 331 328 321 317 315 311 308 305 295 287 281 273 269 267 265 264 263 262 261 261 262 261 260 261 261 261 261 260 255 252 248 245 241 240 238
322 325 324 323 322 326 329 327 331 331 329 328 327 327 327 328 323 322 317 312 307 304 298 290 283 277 273 269 266 265 262 262 263 264 263 264 264 264 265 266 264 262 259 256 254 247 243 241 239
318 319 320 319 322 324 327 324 328 331 330 327 326 327 329 330 325 323 318 312 306 303 298 291 286 281 276 271 268 267 267 264 263 262 264 265 265 265 264 265 265 263 262 260 257 255 247 243 240
315 316 320 321 322 326 328 325 326 326 329 329 332 332 338 330 327 326 324 315 307 301 297 291 288 283 280 276 271 269 267 266 265 264 263 262 263 264 266 267 266 263 259 258 257 255 252 244 241
312 315 318 321 324 325 325 325 326 329 329 330 333 331 331 333 327 324 323 318 310 304 298 291 288 284 280 278 275 271 269 268 266 265 264 263 264 264 263 264 265 264 261 258 255 253 250 246 244
313 317 320 325 325 323 325 327 327 327 325 327 329 331 332 333 329 325 323 318 311 305 299 292 289 287 282 280 277 275 273 272 269 269 268 268 267 266 266 265 265 264 261 258 255 252 249 245 242